Weather History for KMNH - April, 2013

Change the Weather History Date:

Sunday, April 7, 2013

  Actual Average (KAPA) Record (KAPA)
Temperature  
Mean Temperature 44 °F -  
Max Temperature 57 °F 54 °F 70 °F (1999)
Min Temperature 32 °F 29 °F 21 °F (2007)
Degree Days  
Heating Degree Days 20    
Moisture  
Dew Point 24 °F    
Average Humidity 52    
Maximum Humidity 93    
Minimum Humidity 20    
Precipitation  
Precipitation 0.00 in - - ()
Sea Level Pressure  
Sea Level Pressure 29.83 in    
Wind  
Wind Speed 8 mph (WSW)    
Max Wind Speed 20 mph    
Max Gust Speed 32 mph    
Visibility 10 miles    
Events      
Averages and records for this station are not official NWS values.
T = Trace of Precipitation, MM = Missing Value Source: NWS Daily Summary

Daily Weather History Graph

Daily Weather History Graph

Search for Another Location

Airport or City:

Trip Planner

Search our weather history database for the weather conditions in past years. The results will help you decide how hot, cold, wet, or windy it might be!

Date:

Astronomy

Apr. 07, 2013 Rise Set
Actual Time 6:33 AM MDT 7:28 PM MDT
Civil Twilight 6:05 AM MDT 7:55 PM MDT
Nautical Twilight 5:33 AM MDT 8:28 PM MDT
Astronomical Twilight 5:00 AM MDT 9:01 PM MDT
Moon 4:51 AM MDT (4/7) 5:04 PM MDT (4/7)
Length of Visible Light 13h 49m
Length of Day
12h 55m
Waning Crescent, 8% of the Moon is Illuminated
Apr 7
Waning Crescent
Apr 10
New
Apr 18
First Quarter
Apr 25
Full
May 2
Last Quarter

Hourly Weather History & Observations

Time (MDT) Temp. Windchill Dew Point Humidity Pressure Visibility Wind Dir Wind Speed Gust Speed Precip Events Conditions
12:14 AM 37.4 °F 30.8 °F 30.2 °F 75% 29.93 in 10.0 mi SSE 9.2 mph - N/A   Scattered Clouds
12:34 AM 35.6 °F 29.2 °F 30.2 °F 81% 29.92 in 10.0 mi SSE 8.1 mph - N/A   Clear
12:54 AM 35.6 °F 28.0 °F 30.2 °F 81% 29.92 in 10.0 mi SSE 10.4 mph - N/A   Clear
1:14 AM 35.6 °F 27.1 °F 30.2 °F 81% 29.91 in 10.0 mi SSE 12.7 mph - N/A   Clear
1:34 AM 33.8 °F 24.3 °F 30.2 °F 87% 29.91 in 10.0 mi South 13.8 mph - N/A   Clear
1:54 AM 33.8 °F 25.3 °F 30.2 °F 87% 29.91 in 10.0 mi South 11.5 mph - N/A   Scattered Clouds
2:14 AM 33.8 °F 27.7 °F 30.2 °F 87% 29.91 in 10.0 mi SSW 6.9 mph - N/A   Scattered Clouds
2:34 AM 33.8 °F 25.3 °F 30.2 °F 87% 29.89 in 10.0 mi South 11.5 mph - N/A   Scattered Clouds
2:54 AM 33.8 °F 26.4 °F 30.2 °F 87% 29.88 in 10.0 mi South 9.2 mph - N/A   Clear
3:14 AM 33.8 °F 27.0 °F 30.2 °F 87% 29.87 in 10.0 mi SSW 8.1 mph - N/A   Clear
3:34 AM 33.8 °F 25.8 °F 30.2 °F 87% 29.87 in 10.0 mi SSW 10.4 mph - N/A   Clear
3:54 AM 32.0 °F 24.2 °F 30.2 °F 93% 29.87 in 10.0 mi SSW 9.2 mph - N/A   Clear
4:14 AM 32.0 °F 24.2 °F 28.4 °F 87% 29.87 in 10.0 mi SSW 9.2 mph - N/A   Clear
4:34 AM 32.0 °F 24.8 °F 28.4 °F 87% 29.87 in 10.0 mi SSW 8.1 mph - N/A   Clear
4:54 AM 32.0 °F 25.6 °F 28.4 °F 87% 29.87 in 10.0 mi South 6.9 mph - N/A   Clear
5:14 AM 32.0 °F 24.2 °F 26.6 °F 80% 29.86 in 10.0 mi South 9.2 mph - N/A   Clear
5:34 AM 32.0 °F 24.8 °F 26.6 °F 80% 29.86 in 10.0 mi SSW 8.1 mph - N/A   Clear
5:54 AM 33.8 °F 27.0 °F 26.6 °F 75% 29.86 in 10.0 mi SW 8.1 mph - N/A   Clear
6:14 AM 32.0 °F 25.6 °F 26.6 °F 80% 29.86 in 10.0 mi NNW 6.9 mph - N/A   Clear
6:34 AM 32.0 °F 25.6 °F 24.8 °F 75% 29.86 in 10.0 mi NNW 6.9 mph - N/A   Clear
6:54 AM 35.6 °F 31.7 °F 23.0 °F 60% 29.87 in 10.0 mi North 4.6 mph - N/A   Clear
7:14 AM 33.8 °F - 24.8 °F 70% 29.87 in 10.0 mi Calm Calm - N/A   Clear
7:34 AM 37.4 °F 34.9 °F 28.4 °F 70% 29.88 in 10.0 mi NNW 3.5 mph - N/A   Clear
7:54 AM 41.0 °F 39.0 °F 30.2 °F 65% 29.88 in 10.0 mi NNW 3.5 mph - N/A   Clear
8:14 AM 42.8 °F - 30.2 °F 61% 29.89 in 10.0 mi Calm Calm - N/A   Clear
8:34 AM 42.8 °F - 28.4 °F 57% 29.89 in 10.0 mi Calm Calm - N/A   Clear
8:54 AM 44.6 °F - 28.4 °F 53% 29.87 in 10.0 mi Calm Calm - N/A   Clear
9:14 AM 46.4 °F - 23.0 °F 40% 29.86 in 10.0 mi Calm Calm - N/A   Clear
9:34 AM 48.2 °F - 21.2 °F 34% 29.85 in 10.0 mi WSW 3.5 mph - N/A   Clear
9:54 AM 50.0 °F - 21.2 °F 32% 29.85 in 10.0 mi WNW 3.5 mph - N/A   Clear
10:14 AM 51.8 °F - 21.2 °F 30% 29.85 in 10.0 mi West 5.8 mph - N/A   Clear
10:34 AM 51.8 °F - 19.4 °F 28% 29.85 in 10.0 mi NW 4.6 mph - N/A   Clear
10:54 AM 51.8 °F - 19.4 °F 28% 29.85 in 10.0 mi West 6.9 mph - N/A   Clear
11:14 AM 53.6 °F - 19.4 °F 26% 29.84 in 10.0 mi NW 5.8 mph - N/A   Clear
11:34 AM 53.6 °F - 19.4 °F 26% 29.84 in 10.0 mi North 5.8 mph - N/A   Clear
11:54 AM 53.6 °F - 17.6 °F 24% 29.83 in 10.0 mi Calm Calm - N/A   Clear
12:14 PM 55.4 °F - 19.4 °F 25% 29.81 in 10.0 mi ESE 10.4 mph - N/A   Clear
12:34 PM 53.6 °F - 17.6 °F 24% 29.81 in 10.0 mi Calm Calm - N/A   Clear
12:54 PM 53.6 °F - 17.6 °F 24% 29.79 in 10.0 mi ENE 3.5 mph - N/A   Clear
1:13 PM 53.6 °F - 17.6 °F 24% 29.79 in 10.0 mi Calm Calm - N/A   Clear
1:33 PM 51.8 °F - 19.4 °F 28% 29.80 in 10.0 mi West 9.2 mph 19.6 mph N/A   Clear
1:53 PM 55.4 °F - 17.6 °F 23% 29.80 in 10.0 mi West 13.8 mph 25.3 mph N/A   Clear
2:13 PM 51.8 °F - 17.6 °F 26% 29.79 in 10.0 mi West 15.0 mph 32.2 mph N/A   Clear
2:34 PM 51.8 °F - 17.6 °F 26% 29.79 in 10.0 mi West 12.7 mph 23.0 mph N/A   Clear
2:54 PM 53.6 °F - 19.4 °F 26% 29.77 in 10.0 mi West 8.1 mph 16.1 mph N/A   Clear
3:14 PM 51.8 °F - 19.4 °F 28% 29.79 in 10.0 mi WNW 15.0 mph 18.4 mph N/A   Scattered Clouds
3:33 PM 51.8 °F - 26.6 °F 38% 29.79 in 10.0 mi WNW 10.4 mph 20.7 mph N/A   Scattered Clouds
3:54 PM 57.2 °F - 17.6 °F 21% 29.78 in 10.0 mi WNW 16.1 mph 31.1 mph N/A   Clear
4:14 PM 55.4 °F - 14.0 °F 20% 29.77 in 10.0 mi WNW 19.6 mph 28.8 mph N/A   Clear
4:34 PM 55.4 °F - 17.6 °F 23% 29.78 in 10.0 mi NW 15.0 mph 25.3 mph N/A   Clear
4:54 PM 53.6 °F - 21.2 °F 28% 29.78 in 10.0 mi NW 9.2 mph 13.8 mph N/A   Clear
5:14 PM 53.6 °F - 21.2 °F 28% 29.77 in 10.0 mi North 4.6 mph - N/A   Clear
5:34 PM 51.8 °F - 23.0 °F 33% 29.77 in 10.0 mi North 8.1 mph - N/A   Clear
5:54 PM 51.8 °F - 21.2 °F 30% 29.78 in 10.0 mi NNE 10.4 mph - N/A   Scattered Clouds
6:13 PM 53.6 °F - 21.2 °F 28% 29.77 in 10.0 mi NE 9.2 mph - N/A   Clear
6:34 PM 51.8 °F - 21.2 °F 30% 29.77 in 10.0 mi ENE 9.2 mph - N/A   Clear
6:53 PM 50.0 °F - 21.2 °F 32% 29.77 in 10.0 mi ENE 5.8 mph - N/A   Clear
7:14 PM 46.4 °F 43.5 °F 21.2 °F 37% 29.77 in 10.0 mi NNE 5.8 mph - N/A   Clear
7:34 PM 46.4 °F 43.5 °F 21.2 °F 37% 29.77 in 10.0 mi NNW 5.8 mph - N/A   Clear
7:54 PM 44.6 °F 42.2 °F 23.0 °F 43% 29.78 in 10.0 mi NW 4.6 mph - N/A   Clear
8:14 PM 44.6 °F 43.1 °F 23.0 °F 43% 29.79 in 10.0 mi West 3.5 mph - N/A   Clear
8:34 PM 42.8 °F 40.1 °F 21.2 °F 42% 29.79 in 10.0 mi SSW 4.6 mph - N/A   Clear
8:54 PM 37.4 °F 34.9 °F 23.0 °F 56% 29.80 in 10.0 mi WSW 3.5 mph - N/A   Clear
9:14 PM 37.4 °F 33.8 °F 23.0 °F 56% 29.80 in 10.0 mi South 4.6 mph - N/A   Clear
9:34 PM 35.6 °F 31.7 °F 23.0 °F 60% 29.81 in 10.0 mi SSW 4.6 mph - N/A   Clear
9:54 PM 37.4 °F 32.1 °F 23.0 °F 56% 29.81 in 10.0 mi SW 6.9 mph - N/A   Clear
10:14 PM 37.4 °F 32.8 °F 23.0 °F 56% 29.81 in 10.0 mi SSW 5.8 mph - N/A   Clear
10:34 PM 35.6 °F 29.2 °F 23.0 °F 60% 29.80 in 10.0 mi South 8.1 mph - N/A   Clear
10:54 PM 33.8 °F 28.6 °F 23.0 °F 65% 29.79 in 10.0 mi SSE 5.8 mph - N/A   Clear
11:14 PM 35.6 °F 29.2 °F 23.0 °F 60% 29.78 in 10.0 mi SSE 8.1 mph - N/A   Clear
11:34 PM 35.6 °F 30.7 °F 23.0 °F 60% 29.78 in 10.0 mi SSE 5.8 mph - N/A   Clear
11:53 PM 39.2 °F 35.9 °F 21.2 °F 49% 29.78 in 10.0 mi South 4.6 mph - N/A   Clear